Location: Bats
(43.6587°N, 0.4584°W)
Time: 10:37:31
(UTC+00:00)

Cosmos 1470 Rocket - Pass Details

Date: 12 January 2026
Orbit: 597 x 626 km, 82.5° (Epoch: 10 February)

Event Time Altitude Azimuth Distance (km) Brightness Sun altitude
Rises 17:40:03 0° 359° (N) 2,856 6.8 -9.5°
Reaches altitude 10° 17:42:24 10° 7° (N) 1,951 5.9 -9.9°
Maximum altitude 17:46:26 38° 77° (ENE) 919 4.0 -10.6°
Drops below altitude 10° 17:50:28 10° 146° (SE) 1,949 6.0 -11.3°
Sets 17:52:48 0° 154° (SSE) 2,852 6.9 -11.7°
